Home   Weather   41°58'N, 87°56'W   Past weeks
Flag for USA

Past Weather in 41°58'N, 87°56'W, USA — Yesterday and Last 2 Weeks

Now
88 °F

Broken clouds.


Feels Like: 94 °F
Forecast: 81 / 74 °F
Wind: 9 mph from East

Location: Chicago Midway Airport

Current Time: Jul 17, 2019 at 5:47:56 pm

Latest Report: Jul 17, 2019 at 4:53 pm


Visibility: 10 mi

Pressure: 29.86 "Hg

Humidity: 57%

Dew Point: 71 °F

Location of 41°58'N, 87°56'WLocation

Past Weather in 41°58'N, 87°56'W — Graph

°F

41°58'N, 87°56'W Temperature Yesterday

Maximum temperature yesterday: 82 °F (at 3:53 pm)
Minimum temperature yesterday: 72 °F (at 3:53 am)
Average temperature yesterday: 77 °F

High & Low Weather Summary for the Past Weeks

 TemperatureHumidityPressure
High95 °F (Jul 10, 2:53 pm)100% (Jul 2, 8:25 pm)30.09 "Hg (Jul 2, 8:25 pm)
Low62 °F (Jul 12, 5:53 am)34% (Jul 9, 3:53 pm)29.77 "Hg (Jul 2, 5:53 pm)
Average79 °F66%29.94 "Hg
* Reported Jul 2 3:53 pm — Jul 17 3:53 pm, 41°58'N, 87°56'W. Weather by CustomWeather, © 2019

Note: Actual official high and low records may vary slightly from our data, if they occured in-between our weather recording intervals... More about our weather records

Advertising

41°58'N, 87°56'W Weather History for the Previous 24 Hours

Scroll right to see more
 ConditionsComfort  
Time TempWeatherWind HumidityBarometerVisibility
3:53 pm
Wed, Jul 17
90 °FBroken clouds.9 mph56%29.86 "Hg10 mi
2:53 pm88 °FBroken clouds.7 mph57%29.87 "Hg10 mi
1:53 pm85 °FBroken clouds.9 mph59%29.89 "Hg10 mi
12:53 pm86 °FBroken clouds.7 mph63%29.89 "Hg10 mi
11:53 am87 °FPartly sunny.3 mph61%29.89 "Hg10 mi
10:53 am87 °FPartly sunny.5 mph61%29.89 "Hg10 mi
9:53 am84 °FPartly sunny.6 mph67%29.89 "Hg10 mi
8:53 am84 °FPartly sunny.5 mph67%29.88 "Hg10 mi
7:53 am83 °FPartly sunny.6 mph72%29.86 "Hg10 mi
6:53 am78 °FScattered clouds.3 mph84%29.85 "Hg10 mi
5:53 am75 °FScattered clouds.No wind94%29.85 "Hg9 mi
4:53 am75 °FPassing clouds.5 mph94%29.85 "Hg8 mi
3:53 am75 °FPassing clouds.No wind94%29.83 "Hg9 mi
2:53 am76 °FPassing clouds.3 mph94%29.83 "Hg10 mi
1:53 am77 °FPassing clouds.3 mph90%29.84 "Hg10 mi
12:53 am77 °FPassing clouds.3 mph90%29.84 "Hg10 mi
11:53 pm
Tue, Jul 16
78 °FPassing clouds.No wind87%29.83 "Hg10 mi
11:10 pm79 °FPartly cloudy.3 mph84%29.87 "Hg10 mi
10:53 pm79 °FPassing clouds.No wind84%29.85 "Hg10 mi
10:44 pm79 °FPassing clouds.3 mph84%29.88 "Hg10 mi
9:53 pm79 °FPassing clouds.3 mph84%29.84 "Hg10 mi
8:53 pm80 °FPassing clouds.7 mph79%29.83 "Hg10 mi
7:53 pm81 °FPartly sunny.3 mph79%29.83 "Hg10 mi
6:53 pm81 °FPartly sunny.7 mph77%29.83 "Hg10 mi
5:53 pm81 °FPartly sunny.7 mph79%29.83 "Hg10 mi
5:24 pm81 °FThunderstorms. Broken clouds.10 mph82%29.86 "Hg10 mi
Weather by CustomWeather, © 2019

See weather overview